Weather History for Rochester, NY

Change the Weather History Date:

Sunday, August 5, 2012

  Actual Average Record
Temperature  
Mean Temperature 78 °F 70 °F  
Max Temperature 87 °F 80 °F 96 °F (1955)
Min Temperature 68 °F 61 °F 45 °F (1951)
Degree Days  
Heating Degree Days 0 0  
Month to date heating degree days 0 0  
Since 1 June heating degree days 46 80  
Since 1 July heating degree days 0 12  
Cooling Degree Days 13 6  
Month to date cooling degree days 60 30  
Year to date cooling degree days 606 359  
Since 1 June cooling degree days 518 329  
Growing Degree Days 28 (Base 50)    
Moisture  
Dew Point 69 °F    
Average Humidity 76    
Maximum Humidity 90    
Minimum Humidity 61    
Precipitation  
Precipitation 1.70 in 0.12 in 1.70 in (2012)
Month to date precipitation 1.70 0.61  
Year to date precipitation 19.46 19.74  
Snow  
Snow 0.00 in 0.00 in 0.00 in ()
Month to date snowfall 0.0 0.0  
Since 1 June snowfall 0.0 0.0  
Since 1 July snowfall 0.0 0.0  
Snow Depth 0.00 in    
Sea Level Pressure  
Sea Level Pressure 29.91 in    
Wind  
Wind Speed 13 mph (SW)    
Max Wind Speed 33 mph    
Max Gust Speed 43 mph    
Visibility 8 miles    
Events Fog , Rain , Thunderstorm    
T = Trace of Precipitation, MM = Missing Value Source: NWS Daily Summary

Daily Weather History Graph

Daily Weather History Graph

Search for Another Location

Airport:

Trip Planner

Search our weather history database for the weather conditions in past years. The results will help you decide how hot, cold, wet, or windy it might be!

Date:

Astronomy

Aug. 05, 2012 Rise Set
Actual Time 6:05 AM EDT 8:26 PM EDT
Civil Twilight 5:34 AM EDT 8:58 PM EDT
Nautical Twilight 4:54 AM EDT 9:37 PM EDT
Astronomical Twilight 4:10 AM EDT 10:21 PM EDT
Moon 9:55 PM EDT (8/5) 10:01 AM EDT (8/5)
Length of Visible Light 15h 24m
Length of Day
14h 20m
Waning Gibbous, 86% of the Moon is Illuminated
Aug 5
Waning Gibbous
Aug 9
Last Quarter
Aug 17
New
Aug 24
First Quarter
Aug 31
Full

Hourly Weather History & Observations

Time (EDT) Temp. Heat Index Dew Point Humidity Pressure Visibility Wind Dir Wind Speed Gust Speed Precip Events Conditions
12:54 AM 80.1 °F 82.9 °F 69.1 °F 69% 29.98 in 10.0 mi South 15.0 mph 23.0 mph N/A   Scattered Clouds
1:54 AM 80.1 °F 82.9 °F 69.1 °F 69% 29.95 in 10.0 mi South 15.0 mph 24.2 mph N/A   Scattered Clouds
2:54 AM 79.0 °F - 69.1 °F 72% 29.93 in 10.0 mi South 12.7 mph 20.7 mph N/A   Mostly Cloudy
3:54 AM 79.0 °F - 69.1 °F 72% 29.91 in 10.0 mi South 11.5 mph - N/A   Mostly Cloudy
4:54 AM 80.1 °F 82.9 °F 69.1 °F 69% 29.91 in 10.0 mi South 11.5 mph 19.6 mph N/A   Overcast
5:54 AM 79.0 °F - 69.1 °F 72% 29.90 in 10.0 mi SSW 10.4 mph 19.6 mph N/A   Mostly Cloudy
6:54 AM 80.1 °F 82.9 °F 69.1 °F 69% 29.90 in 10.0 mi SSW 13.8 mph 20.7 mph N/A   Mostly Cloudy
7:54 AM 80.1 °F 82.9 °F 69.1 °F 69% 29.91 in 10.0 mi SSW 10.4 mph 20.7 mph N/A   Mostly Cloudy
8:54 AM 80.1 °F 82.9 °F 69.1 °F 69% 29.90 in 10.0 mi SSW 18.4 mph 25.3 mph N/A   Mostly Cloudy
9:54 AM 82.0 °F 85.9 °F 70.0 °F 67% 29.90 in 10.0 mi SSW 17.3 mph 24.2 mph 0.00 in   Mostly Cloudy
10:54 AM 84.0 °F 88.4 °F 70.0 °F 63% 29.89 in 10.0 mi SSW 21.9 mph 27.6 mph N/A   Mostly Cloudy
11:54 AM 86.0 °F 92.2 °F 72.0 °F 63% 29.88 in 10.0 mi SSW 18.4 mph 26.5 mph N/A   Overcast
12:54 PM 86.0 °F 91.5 °F 71.1 °F 61% 29.87 in 10.0 mi SW 20.7 mph - N/A   Overcast
1:48 PM 82.4 °F 88.2 °F 73.4 °F 74% 29.87 in 6.0 mi SW 10.4 mph - 0.00 in Rain , Thunderstorm Thunderstorms and Rain
1:54 PM 80.1 °F 84.2 °F 73.0 °F 79% 29.88 in 0.5 mi WNW 13.8 mph 19.6 mph 0.07 in Rain , Thunderstorm Heavy Thunderstorms and Rain
2:05 PM 75.2 °F - 69.8 °F 83% 29.87 in 2.0 mi WNW 24.2 mph 35.7 mph 0.22 in Rain , Thunderstorm Thunderstorms and Rain
2:15 PM 71.6 °F - 68.0 °F 88% 29.92 in 0.2 mi West 27.6 mph 42.6 mph 0.25 in Fog , Rain , Thunderstorm Heavy Thunderstorms and Rain
2:24 PM 71.6 °F - 68.0 °F 88% 29.94 in 1.5 mi SSW 15.0 mph 23.0 mph 0.89 in Rain , Thunderstorm Heavy Thunderstorms and Rain
2:38 PM 71.6 °F - 69.8 °F 94% 29.91 in 5.0 mi SW 10.4 mph - 1.26 in Rain , Thunderstorm Light Thunderstorms and Rain
2:54 PM 72.0 °F - 71.1 °F 97% 29.92 in 7.0 mi West 15.0 mph 20.7 mph 1.29 in Rain Rain
2:56 PM 71.6 °F - 71.6 °F 100% 29.93 in 0.8 mi West 24.2 mph 41.4 mph 0.00 in Rain Heavy Rain
3:05 PM 71.6 °F - 71.6 °F 100% 29.92 in 2.0 mi WSW 13.8 mph 41.4 mph 0.18 in Rain Rain
3:15 PM 73.4 °F - 69.8 °F 88% 29.91 in 7.0 mi West 9.2 mph - 0.26 in Rain Light Rain
3:54 PM 73.0 °F - 70.0 °F 90% 29.89 in 8.0 mi SW 11.5 mph - 0.29 in Rain Light Rain
4:44 PM 73.4 °F - 71.6 °F 94% 29.89 in 10.0 mi SSW 11.5 mph - 0.00 in   Mostly Cloudy
4:54 PM 73.9 °F - 71.1 °F 91% 29.88 in 10.0 mi SSW 9.2 mph - 0.00 in   Mostly Cloudy
5:54 PM 77.0 °F - 70.0 °F 79% 29.88 in 10.0 mi SW 12.7 mph - N/A   Scattered Clouds
6:54 PM 78.1 °F - 70.0 °F 76% 29.88 in 10.0 mi SW 11.5 mph - N/A   Scattered Clouds
7:46 PM 77.0 °F - 69.8 °F 78% 29.91 in 10.0 mi WSW 10.4 mph - N/A   Overcast
7:54 PM 77.0 °F - 69.1 °F 76% 29.91 in 8.0 mi West 15.0 mph - 0.00 in Rain Light Rain
8:07 PM 73.4 °F - 64.4 °F 73% 29.93 in 8.0 mi West 10.4 mph 26.5 mph 0.05 in   Mostly Cloudy
8:54 PM 70.0 °F - 66.9 °F 90% 29.94 in 10.0 mi SSW 6.9 mph - 0.05 in   Mostly Cloudy
9:54 PM 71.1 °F - 66.9 °F 87% 29.97 in 10.0 mi NW 6.9 mph - N/A   Scattered Clouds
10:54 PM 69.1 °F - 66.0 °F 90% 29.99 in 10.0 mi NW 5.8 mph - N/A   Scattered Clouds
11:54 PM 69.1 °F - 64.0 °F 84% 30.01 in 10.0 mi NW 6.9 mph - N/A   Scattered Clouds